Menomonie, WI

6:44 PM CDT on August 17, 2017 (GMT -0500)
Menomonie

Weather History for KLUM - May, 2013

Change the Weather History Date:

Wednesday, May 15, 2013

  Actual Average (KEAU) Record (KEAU)
Temperature  
Mean Temperature 66 °F -  
Max Temperature 77 °F 70 °F 93 °F (1998)
Min Temperature 55 °F 44 °F 27 °F (2016)
Cooling Degree Days 1    
Growing Degree Days 16 (Base 50)    
Moisture  
Dew Point 41 °F    
Average Humidity 41    
Maximum Humidity 63    
Minimum Humidity 24    
Precipitation  
Precipitation 0.00 in - - ()
Sea Level Pressure  
Sea Level Pressure 29.82 in    
Wind  
Wind Speed 11 mph (West)    
Max Wind Speed 18 mph    
Max Gust Speed 26 mph    
Visibility 10 miles    
Events      
Averages and records for this station are not official NWS values.
T = Trace of Precipitation, MM = Missing Value Source: NWS Daily Summary

Daily Weather History Graph

Daily Weather History Graph

Search for Another Location

Airport or City:

Trip Planner

Search our weather history database for the weather conditions in past years. The results will help you decide how hot, cold, wet, or windy it might be!

Date:

Astronomy

May. 15, 2013 Rise Set
Actual Time 5:38 AM CDT 8:29 PM CDT
Civil Twilight 5:04 AM CDT 9:04 PM CDT
Nautical Twilight 4:20 AM CDT 9:47 PM CDT
Astronomical Twilight 3:30 AM CDT 10:39 PM CDT
Moon 10:16 AM CDT (5/15) 12:14 AM CDT (5/15)
Length of Visible Light 15h 59m
Length of Day
14h 51m
Waxing Crescent, 27% of the Moon is Illuminated
May 15
Waxing Crescent
May 17
First Quarter
May 24
Full
May 31
Last Quarter
Jun 8
New

Hourly Weather History & Observations

Time (CDT) Temp. Dew Point Humidity Pressure Visibility Wind Dir Wind Speed Gust Speed Precip Events Conditions
12:35 AM 69.8 °F 39.2 °F 33% 29.63 in 10.0 mi West 17.3 mph 26.5 mph N/A   Clear
12:55 AM 69.8 °F 41.0 °F 35% 29.65 in 10.0 mi WNW 13.8 mph - N/A   Clear
1:15 AM 68.0 °F 41.0 °F 37% 29.66 in 10.0 mi WNW 15.0 mph 19.6 mph N/A   Clear
1:35 AM 68.0 °F 42.8 °F 40% 29.67 in 10.0 mi WNW 16.1 mph 21.9 mph N/A   Clear
1:55 AM 66.2 °F 42.8 °F 43% 29.68 in 10.0 mi WNW 11.5 mph 17.3 mph N/A   Clear
2:15 AM 64.4 °F 42.8 °F 45% 29.69 in 10.0 mi WNW 9.2 mph - N/A   Clear
2:35 AM 62.6 °F 42.8 °F 48% 29.70 in 10.0 mi West 8.1 mph - N/A   Clear
3:15 AM 62.6 °F 44.6 °F 52% 29.72 in 10.0 mi WNW 9.2 mph - N/A   Clear
3:35 AM 62.6 °F 44.6 °F 52% 29.73 in 10.0 mi WNW 15.0 mph 19.6 mph N/A   Clear
3:55 AM 60.8 °F 44.6 °F 55% 29.73 in 10.0 mi WNW 18.4 mph 23.0 mph N/A   Clear
4:15 AM 60.8 °F 42.8 °F 52% 29.75 in 10.0 mi WNW 13.8 mph - N/A   Clear
4:35 AM 59.0 °F 42.8 °F 55% 29.77 in 10.0 mi NW 11.5 mph 17.3 mph N/A   Clear
4:55 AM 59.0 °F 42.8 °F 55% 29.78 in 10.0 mi WNW 9.2 mph - N/A   Clear
5:15 AM 57.2 °F 42.8 °F 59% 29.78 in 10.0 mi WNW 8.1 mph - N/A   Clear
5:35 AM 55.4 °F 42.8 °F 63% 29.79 in 10.0 mi WNW 6.9 mph - N/A   Clear
6:15 AM 55.4 °F 42.8 °F 63% 29.81 in 10.0 mi WNW 6.9 mph - N/A   Clear
6:35 AM 55.4 °F 42.8 °F 63% 29.82 in 10.0 mi West 6.9 mph - N/A   Clear
6:55 AM 55.4 °F 42.8 °F 63% 29.84 in 10.0 mi West 6.9 mph - N/A   Clear
7:15 AM 57.2 °F 42.8 °F 59% 29.87 in 10.0 mi West 8.1 mph - N/A   Clear
7:55 AM 59.0 °F 42.8 °F 55% 29.89 in 10.0 mi West 10.4 mph - N/A   Clear
8:15 AM 60.8 °F 42.8 °F 52% 29.91 in 10.0 mi West 10.4 mph 18.4 mph N/A   Clear
8:35 AM 60.8 °F 42.8 °F 52% 29.91 in 10.0 mi WNW 12.7 mph - N/A   Clear
8:55 AM 62.6 °F 42.8 °F 48% 29.90 in 10.0 mi WNW 10.4 mph - N/A   Clear
9:15 AM 62.6 °F 41.0 °F 45% 29.91 in 10.0 mi NW 11.5 mph - N/A   Clear
9:35 AM 62.6 °F 41.0 °F 45% 29.91 in 10.0 mi NW 10.4 mph - N/A   Clear
10:35 AM 62.6 °F 42.8 °F 48% 29.90 in 10.0 mi WNW 5.8 mph - N/A   Clear
10:55 AM 62.6 °F 41.0 °F 45% 29.87 in 10.0 mi North 4.6 mph - N/A   Clear
11:15 AM 62.6 °F 41.0 °F 45% 29.88 in 10.0 mi NNW 5.8 mph - N/A   Clear
11:35 AM 64.4 °F 41.0 °F 42% 29.89 in 10.0 mi NW 3.5 mph - N/A   Clear
11:55 AM 64.4 °F 41.0 °F 42% 29.90 in 10.0 mi WSW 5.8 mph - N/A   Clear
12:15 PM 64.4 °F 41.0 °F 42% 29.90 in 10.0 mi WSW 3.5 mph - N/A   Clear
12:35 PM 66.2 °F 41.0 °F 40% 29.89 in 10.0 mi West 5.8 mph - N/A   Clear
12:55 PM 68.0 °F 41.0 °F 37% 29.89 in 10.0 mi SW 5.8 mph - N/A   Clear
1:15 PM 68.0 °F 39.2 °F 35% 29.88 in 10.0 mi SW 5.8 mph - N/A   Clear
1:35 PM 69.8 °F 41.0 °F 35% 29.88 in 10.0 mi SSW 6.9 mph - N/A   Clear
1:55 PM 71.6 °F 39.2 °F 31% 29.87 in 10.0 mi SW 5.8 mph - N/A   Clear
2:15 PM 71.6 °F 39.2 °F 31% 29.86 in 10.0 mi WSW 8.1 mph - N/A   Clear
2:35 PM 73.4 °F 39.2 °F 29% 29.86 in 10.0 mi SW 13.8 mph 17.3 mph N/A   Clear
2:55 PM 73.4 °F 41.0 °F 31% 29.86 in 10.0 mi SW 8.1 mph - N/A   Clear
3:15 PM 77.0 °F 37.4 °F 24% 29.85 in 10.0 mi West 9.2 mph 18.4 mph N/A   Clear
3:35 PM 75.2 °F 37.4 °F 25% 29.84 in 10.0 mi SW 8.1 mph - N/A   Clear
3:55 PM 75.2 °F 37.4 °F 25% 29.83 in 10.0 mi WSW 10.4 mph - N/A   Clear
4:15 PM 75.2 °F 39.2 °F 27% 29.83 in 10.0 mi SW 11.5 mph - N/A   Clear
4:35 PM 75.2 °F 41.0 °F 29% 29.83 in 10.0 mi SW 13.8 mph 18.4 mph N/A   Clear
4:55 PM 75.2 °F 37.4 °F 25% 29.83 in 10.0 mi West 15.0 mph - N/A   Clear
5:15 PM 75.2 °F 41.0 °F 29% 29.83 in 10.0 mi SSW 10.4 mph 16.1 mph N/A   Clear
5:35 PM 75.2 °F 39.2 °F 27% 29.83 in 10.0 mi WSW 12.7 mph 17.3 mph N/A   Clear
5:55 PM 75.2 °F 39.2 °F 27% 29.83 in 10.0 mi WSW 10.4 mph 16.1 mph N/A   Clear
6:15 PM 75.2 °F 39.2 °F 27% 29.82 in 10.0 mi SW 10.4 mph - N/A   Clear
6:35 PM 75.2 °F 39.2 °F 27% 29.82 in 10.0 mi SW 10.4 mph - N/A   Clear
6:55 PM 73.4 °F 41.0 °F 31% 29.82 in 10.0 mi WSW 12.7 mph - N/A   Clear
7:15 PM 73.4 °F 39.2 °F 29% 29.82 in 10.0 mi SW 12.7 mph - N/A   Clear
7:35 PM 73.4 °F 39.2 °F 29% 29.82 in 10.0 mi SW 9.2 mph - N/A   Clear
7:55 PM 71.6 °F 39.2 °F 31% 29.82 in 10.0 mi SW 11.5 mph - N/A   Clear
8:35 PM 68.0 °F 41.0 °F 37% 29.82 in 10.0 mi SSW 5.8 mph - N/A   Clear
9:15 PM 66.2 °F 42.8 °F 43% 29.83 in 10.0 mi SSW 5.8 mph - N/A   Clear
9:35 PM 66.2 °F 42.8 °F 43% 29.83 in 10.0 mi SSW 3.5 mph - N/A   Clear
10:15 PM 64.4 °F 42.8 °F 45% 29.83 in 10.0 mi SSW 4.6 mph - N/A   Clear
11:15 PM 64.4 °F 44.6 °F 49% 29.83 in 10.0 mi South 3.5 mph - N/A   Clear